Milton, FL

5:54 AM CDT on May 28, 2017 (GMT -0500)
Whiting Field Naval Air Station (South)

Weather History for KNDZ - February, 2012

Change the Weather History Date:

Wednesday, February 15, 2012

  Actual Average (KNSE) Record (KNSE)
Temperature  
Mean Temperature 52 °F -  
Max Temperature 62 °F 63 °F 78 °F (2001)
Min Temperature 43 °F 45 °F 30 °F (2007)
Degree Days  
Heating Degree Days 12    
Growing Degree Days 2 (Base 50)    
Moisture  
Dew Point 49 °F    
Average Humidity 90    
Maximum Humidity 100    
Minimum Humidity 70    
Precipitation  
Precipitation 0.03 in - - ()
Sea Level Pressure  
Sea Level Pressure 30.12 in    
Wind  
Wind Speed 5 mph (East)    
Max Wind Speed 10 mph    
Max Gust Speed -    
Visibility 6 miles    
Events Fog    
Averages and records for this station are not official NWS values.
T = Trace of Precipitation, MM = Missing Value Source: NWS Daily Summary

Daily Weather History Graph

Daily Weather History Graph

Search for Another Location

Airport or City:

Trip Planner

Search our weather history database for the weather conditions in past years. The results will help you decide how hot, cold, wet, or windy it might be!

Date:

Astronomy

Feb. 15, 2012 Rise Set
Actual Time 6:29 AM CST 5:35 PM CST
Civil Twilight 6:04 AM CST 6:00 PM CST
Nautical Twilight 5:36 AM CST 6:28 PM CST
Astronomical Twilight 5:08 AM CST 6:56 PM CST
Moon 1:09 AM CST (2/15) 11:43 AM CST (2/15)
Length of Visible Light 11h 55m
Length of Day
11h 06m
Last Quarter, 38% of the Moon is Illuminated
Feb 15
Last Quarter
Feb 21
New
Feb 29
First Quarter
Mar 8
Full
Mar 14
Last Quarter

Hourly Weather History & Observations

Time (CST) Temp. Windchill Dew Point Humidity Pressure Visibility Wind Dir Wind Speed Gust Speed Precip Events Conditions
12:56 AM 48.0 °F - 46.0 °F 93% 30.08 in 10.0 mi NNE 4.6 mph - N/A   Clear
1:32 AM 46.4 °F 43.5 °F 46.4 °F 100% 30.11 in 2.5 mi NNE 5.8 mph - 0.01 in   Scattered Clouds
1:37 AM 46.4 °F 43.5 °F 46.4 °F 100% 30.11 in 1.8 mi NE 5.8 mph - 0.01 in   Mostly Cloudy
1:48 AM 46.4 °F 43.5 °F 46.4 °F 100% 30.11 in 2.5 mi NE 5.8 mph - 0.01 in   Mostly Cloudy
1:56 AM 46.9 °F - 45.0 °F 93% 30.08 in 4.0 mi NE 5.8 mph - 0.01 in   Mostly Cloudy
2:10 AM 46.4 °F 42.9 °F 44.6 °F 93% 30.11 in 10.0 mi NE 6.9 mph - N/A   Scattered Clouds
2:56 AM 46.0 °F 43.1 °F 44.1 °F 93% 30.07 in 10.0 mi NE 5.8 mph - N/A   Clear
3:56 AM 45.0 °F 41.2 °F 44.1 °F 97% 30.09 in 10.0 mi NE 6.9 mph - N/A   Clear
4:26 AM 44.6 °F 40.7 °F 42.8 °F 93% 30.13 in 9.0 mi ENE 6.9 mph - N/A   Scattered Clouds
4:34 AM 44.6 °F 40.7 °F 42.8 °F 93% 30.14 in 9.0 mi NE 6.9 mph - N/A   Mostly Cloudy
4:56 AM 45.0 °F 41.8 °F 43.0 °F 93% 30.10 in 8.0 mi NE 5.8 mph - N/A   Scattered Clouds
5:56 AM 43.0 °F 38.8 °F 42.1 °F 97% 30.10 in 6.0 mi East 6.9 mph - N/A   Clear
6:56 AM 45.0 °F 43.5 °F 43.0 °F 93% 30.12 in 6.0 mi NE 3.5 mph - N/A   Partly Cloudy
7:09 AM 46.4 °F 44.3 °F 44.6 °F 93% 30.16 in 7.0 mi NNE 4.6 mph - N/A   Mostly Cloudy
7:31 AM 46.4 °F 42.4 °F 44.6 °F 93% 30.17 in 7.0 mi ENE 8.1 mph - N/A   Overcast
7:56 AM 46.0 °F 41.0 °F 45.0 °F 96% 30.14 in 4.0 mi ENE 10.4 mph - N/A   Overcast
8:06 AM 46.4 °F 41.5 °F 44.6 °F 93% 30.17 in 1.8 mi East 10.4 mph - N/A   Overcast
8:56 AM 46.9 °F - 46.0 °F 97% 30.16 in 2.5 mi East 4.6 mph - N/A   Overcast
9:03 AM 46.4 °F - 46.4 °F 100% 30.20 in 3.0 mi Calm Calm - N/A   Overcast
9:30 AM 46.4 °F 45.2 °F 46.4 °F 100% 30.21 in 2.5 mi NE 3.5 mph - N/A   Overcast
9:41 AM 48.2 °F - 46.4 °F 93% 30.21 in 3.0 mi NE 4.6 mph - N/A   Overcast
9:56 AM 48.0 °F - 46.0 °F 93% 30.18 in 4.0 mi ENE 3.5 mph - N/A   Overcast
10:56 AM 48.9 °F - 48.0 °F 97% 30.17 in 6.0 mi Calm Calm - N/A   Overcast
11:56 AM 51.1 °F - 48.0 °F 89% 30.15 in 10.0 mi Calm Calm - N/A   Overcast
12:36 PM 53.6 °F - 48.2 °F 82% 30.17 in 10.0 mi Calm Calm - N/A   Overcast
12:56 PM 55.9 °F - 50.0 °F 80% 30.11 in 10.0 mi ESE 5.8 mph - N/A   Overcast
1:29 PM 55.4 °F - 48.2 °F 77% 30.13 in 10.0 mi ESE 3.5 mph - N/A   Partly Cloudy
1:56 PM 57.0 °F - 50.0 °F 77% 30.08 in 10.0 mi SSE 3.5 mph - N/A   Clear
2:56 PM 60.1 °F - 51.1 °F 72% 30.08 in 10.0 mi Calm Calm - N/A   Clear
3:56 PM 62.1 °F - 52.0 °F 70% 30.06 in 10.0 mi SE 6.9 mph - N/A   Partly Cloudy
4:56 PM 61.0 °F - 53.1 °F 75% 30.06 in 10.0 mi South 4.6 mph - N/A   Clear
5:20 PM 60.8 °F - 53.6 °F 77% 30.10 in 10.0 mi South 4.6 mph - N/A   Mostly Cloudy
5:56 PM 59.0 °F - 53.1 °F 81% 30.08 in 10.0 mi Calm Calm - N/A   Overcast
6:35 PM 59.0 °F - 53.6 °F 82% 30.12 in 10.0 mi Calm Calm - N/A   Overcast
6:56 PM 59.0 °F - 53.1 °F 81% 30.09 in 10.0 mi SE 3.5 mph - N/A   Overcast
7:56 PM 59.0 °F - 54.0 °F 83% 30.09 in 10.0 mi SE 4.6 mph - N/A   Overcast
8:26 PM 59.0 °F - 55.4 °F 88% 30.12 in 10.0 mi ESE 4.6 mph - N/A   Overcast
8:56 PM 59.0 °F - 57.0 °F 93% 30.08 in 5.0 mi SE 5.8 mph - N/A   Overcast
9:05 PM 59.0 °F - 57.2 °F 94% 30.11 in 1.8 mi SE 6.9 mph - N/A   Overcast
9:22 PM 59.0 °F - 57.2 °F 94% 30.11 in 0.8 mi ESE 6.9 mph - N/A   Mist
9:56 PM 59.0 °F - 57.9 °F 96% 30.06 in 0.5 mi SE 8.1 mph - N/A Fog Fog
10:56 PM 61.0 °F - 60.1 °F 97% 30.07 in 0.5 mi SSE 5.8 mph - N/A Fog Fog
11:56 PM 61.0 °F - 60.1 °F 97% 30.06 in 0.5 mi ESE 5.8 mph - 0.02 in Fog Fog